Regional Weather Roundup
Issued by NWS

Home | Current Version | Previous Version | Text Only | Print | Product List | Glossary Off
Versions: 1 2 3 4 5 6 7 8 9 10 11 12 13 14 15 16 17 18 19 20 21 22 23 24 25 26 27 28 29 30 31 32 33 34 35 36 37 38 39 40 41 42 43 44 45 46 47 48

000
ASUS45 KTFX 291810
RWRMT
MONTANA REGIONAL WEATHER ROUNDUP
NATIONAL WEATHER SERVICE GREAT FALLS MT
1200 PM MDT WED JUL 29 2015

NOTE: "FAIR" INDICATES FEW OR NO CLOUDS BELOW 12000 FEET WITH NO
SIGNIFICANT WEATHER AND/OR OBSTRUCTIONS TO VISIBILITY.

MTZ001>007-043-291900-
WEST OF THE DIVIDE

CITY           SKY/WX    TMP DP  RH WIND       PRES   REMARKS
KALISPELL      CLEAR     74  40  29 SE13      30.22F
MISSOULA       SUNNY     66  42  41 SW3       30.30F
BUTTE          SUNNY     64  32  30 NE7       30.38S
MULLAN PASS    SUNNY     62  36  37 VRB6      30.37S
DEER LODGE       N/A     68  39  34 CALM      30.37F
EUREKA           N/A     77  41  27 CALM      30.19F
HAMILTON         N/A     70  41  35 N2        30.29F
LIBBY            N/A     72  46  40 CALM      30.21F
RONAN            N/A     75  40  28 SW8       30.27F
THOMPSON FALLS   N/A     76  45  33 NE1       30.24F
$$

MTZ008-052>055-291900-
SOUTHWEST MONTANA

CITY           SKY/WX    TMP DP  RH WIND       PRES   REMARKS
BOZEMAN        SUNNY     67  43  41 NW5       30.33F
DILLON         SUNNY     67  38  34 CALM      30.35F
W YELLOWSTONE  SUNNY     61  36  39 S7        30.43S
TWIN BRIDGES     N/A     66  40  38 SE3       30.30F
$$

MTZ009-010-012-014-046-048-049-054-291900-
EAST SLOPES AND CENTRAL MONTANA

CITY           SKY/WX    TMP DP  RH WIND       PRES   REMARKS
CUT BANK       SUNNY     75  35  23 N13G21    30.18F
GREAT FALLS    SUNNY     75  37  25 W13G22    30.21F
MALMSTROM AFB  SUNNY     73  40  30 W8G16     30.21F
HELENA         SUNNY     74  37  26 W12G23    30.27F
CONRAD           N/A     76  45  33 S10       30.20F
$$

MTZ011-013-016-021-045-047-050-051-291900-
NORTH CENTRAL MONTANA

CITY           SKY/WX    TMP DP  RH WIND       PRES   REMARKS
HAVRE          SUNNY     73  48  41 SW13      30.15S
LEWISTOWN      MOSUNNY   72  40  31 VRB7      30.25S
CHINOOK          N/A     75  45  33 SW12      30.14S
FORT BENTON      N/A     75  39  27 SW9       30.19S
$$

MTZ017>020-022>027-061-062-291900-
NORTHEAST MONTANA

CITY           SKY/WX    TMP DP  RH WIND       PRES   REMARKS
GLASGOW        SUNNY     76  46  34 NW13G20   30.12S
JORDAN           N/A     77  43  29 NW15      30.16S
SIDNEY         SUNNY    N/A N/A N/A W21G26    30.08F
WOLF POINT     MOSUNNY   79  48  33 W16       30.10F
MALTA            N/A     76  48  37 SW10      30.10S
PLENTYWOOD       N/A     73  50  43 W18G29    30.04F
POPLAR           N/A     73  52  46 W20G25    30.09F
SCOBEY           N/A     73  47  39 W16       30.07S
$$

MTZ028>42-056>058-291900-
SOUTHCENTRAL AND SOUTHEAST MONTANA

CITY           SKY/WX    TMP DP  RH WIND       PRES   REMARKS
BAKER          SUNNY     78  40  25 W21G28    30.18F
BILLINGS       MOSUNNY   76  34  21 W17G25    30.25F
LIVINGSTON     SUNNY     73  37  27 W16G24    30.30F
MILES CITY     SUNNY     79  41  25 W17G25    30.17F
FORSYTH          N/A     75  39  27 W13       30.20S
LAUREL           N/A     77  35  21 SW14      30.22F
ROUNDUP          N/A     75  38  26 SW14      30.12F
$$

REGIONAL REPORTS...DAKOTAS

CITY           SKY/WX    TMP DP  RH WIND       PRES   REMARKS
WILLISTON      SUNNY     78  48  34 W22G29    30.05S
MINOT          FAIR      78  52  40 W23G35    29.95S
DICKINSON      PTSUNNY   75  46  35 W16G28    30.11S
BEACH          FAIR      75  45  33 W17G28    30.15F
CROSBY         FAIR      75  54  46 W18G30    30.00F
BISMARCK       MOSUNNY   79  48  33 NW23G35   30.04R
GRAND FORKS    PTSUNNY   78  54  43 W28G39    29.79R
FARGO          PTSUNNY   78  55  44 W24G35    29.87R
BUFFALO SD       N/A     79  36  21 W30G37    30.13F
RAPID CITY     SUNNY     78  43  28 N9        30.24F
$$

REGIONAL REPORTS...WYOMING/IDAHO/WASHINGTON

CITY           SKY/WX    TMP DP  RH WIND       PRES   REMARKS
GILLETTE       SUNNY     73  33  23 SW10      30.29F
SHERIDAN       SUNNY     77  35  21 E6        30.27S
BUFFALO WY     SUNNY     73  33  23 E9        30.31F
CODY           SUNNY     72  30  21 S10       30.32F
YELLOWSTONE LA   N/A     56  35  45 E7        30.50S
IDAHO FALLS    SUNNY     72  32  23 SE6       30.36S
SALMON         SUNNY     64  43  45 CALM      30.32F
BOISE          SUNNY     80  31  16 SE8       30.25F
SPOKANE        MOSUNNY   79  36  21 SW13      30.22F
$$

REGIONAL REPORTS...ALBERTA

CITY           SKY/WX    TMP DP  RH WIND       PRES   REMARKS
EDMONTON       PTSUNNY   68  46  45 NW6       30.04S
CALGARY        CLOUDY    70  37  30 W17G24    30.10F
LETHBRIDGE     PTSUNNY   75  39  27 W9G18     30.12F
MEDICINE HAT   PTSUNNY   77  46  33 SW15      30.08F
WATERTON GATE    N/A     72  43  35 SW14G21     N/A
MILK RIVER       N/A     73  39  29 W13G18      N/A
ONEFOUR          N/A     72  45  37 W8          N/A
$$

REGIONAL REPORTS...SASKATCHEWAN

CITY           SKY/WX    TMP DP  RH WIND       PRES   REMARKS
SWIFT CURRENT  SUNNY     73  50  43 W13G24    30.08R
REGINA         MOSUNNY   73  59  60 W17G28    29.97R
SASKATOON      MOSUNNY   75  52  43 NW20      29.95R
CYPRESS HILLS    N/A     64  46  52 W1          N/A
VAL MARIE        N/A     75  46  35 NW13G18     N/A
ROCKGLEN         N/A     70  48  46 W16G26      N/A
$$



USA.gov is the U.S. government's official web portal to all federal, state and local government web resources and services.